星链-37308(STARLINK-37308)

导读

STARLINK-37308(NORAD编号68952)是美国太空探索技术公司(SpaceX)星链(Starlink)低轨互联网星座中的一员。星链计划旨在搭建全球卫星互联网,为世界各地提供高带宽低延迟的网络接入服务,该卫星属于星链组网扩容的一部分,部署于近地轨道,作为天基移动基站,参与星座通信网络的构建,助力SpaceX实现全球覆盖的卫星互联网服务布局,推动低轨卫星互联网的组网进程。

Basic Information
目录编号:
68952
目录名称:
STARLINK-37308
国际标识:
2026-099B
轨道中心:
EARTH
卫星名称:
星链-37308
卫星全名:
星链-37308(STARLINK-37308)
卫星状态:
在轨 (已飞行43 天)
发射日期:
2026-05-01 UTC
国别 :
美国 (US)
星等 :
--
Orbit Information
数据来源 国际轨道数据 AOE轨道数据
星历时间 2026-06-13T04:00:02+0800
5小时前
查看轨道信息
2026-06-13T00:00:00+0800
9小时前
查看轨道信息
半长轴 6840.925km 6840.879km
偏心率 0.0000964 0.0001494
轨道倾角 53.159° 53.160°
近地点辐角 16.857° 12.114°
升交点赤经 181.966° 182.747°
平近点角 200.763° 4.224°
近地点 462.128km 461.719km
远地点 463.448km 463.765km
周期 93.850分钟 93.849分钟
每日圈数 15.343715 15.34387
Detailed Information
固有亮度:
5
最大亮度:
2.5
卫星平台:
Starlink V1.0
覆盖范围:
全球
运营商:
太空探索技术公司
运营商所在国:
美国
制造商(研发单位):
太空探索技术公司
制造商所在国:
美国
使用方式:
暂无
Satellite Introduction
Starlink 计划是 SpaceX 推出的全球卫星互联网项目,通过发射低轨道卫星,为全球尤其是偏远地区提供高速、低延迟的互联网服务。自 2019 年起,Starlink 已部署数千颗卫星,旨在缩小全球数字鸿沟,推动互联网普及。该项目还为军事、航空等行业提供通信支持,带来广泛经济效益。
2D Orbit Map
3D Orbit Map
Orbit Altitude Analysis Chart
Orbit Inclination Analysis Chart
Orbit Comprehensive Analysis Chart
View Comprehensive Chart